Other Public Products
Issued by NWS Grand Forks, ND

Home | Current Version | Previous Version | Graphics & Text | Print | Product List | Glossary On
Versions: 1 2 3 4 5 6 7 8 9 10 11 12 13 14 15 16 17 18 19 20 21 22 23 24 25 26 27 28 29 30 31 32 33 34 35 36 37 38 39 40 41 42 43 44 45 46 47 48 49 50
000
FPUS83 KFGF 250110
OPUFGF
PRAIRIE TO PINES WEATHER ROUNDUP
NATIONAL WEATHER SERVICE EASTERN NORTH DAKOTA/GRAND FORKS ND
800 PM CDT WED MAY 24 2017

 **SATELLITE DATA USED TO AUGMENT SKY COVER AT AUTOMATED STATIONS**
 *****  WEATHER ACROSS EASTERN NORTH DAKOTA  *****

CITY           SKY/WX    TMP DP  RH WIND       PRES   REMARKS
GRAND FORKS    FAIR      66  42  41 S20G25    29.59F
GRAND FORKS AF FAIR      63  41  44 S15G24    29.59F
GRAND CITY NWS NOT AVBL
BUXTON         NOT AVBL
DEVILS LAKE    FAIR      60  44  55 SE21G28   29.53S
FARGO          CLOUDY    62  42  47 S15G29    29.63R
WAHPETON ARPT  CLOUDY    59  39  47 SE12      29.65S
$$

 *****  WEATHER ACROSS CENTRAL AND WESTERN NORTH DAKOTA  *****

CITY           SKY/WX    TMP DP  RH WIND       PRES   REMARKS
JAMESTOWN      FAIR      61  44  53 SE20G28   29.53F
BISMARCK       FAIR      68  40  35 S18G28    29.42F
MINOT          PTSUNNY   69  36  29 S18G35    29.37R
MINOT AFB      PTSUNNY   68  37  31 S24G30    29.40R
GARRISON         N/A     64  40  41 S23G30    29.37S
WILLISTON      LGT RAIN  60  56  86 NW6       29.34R FOG
DICKINSON      PTSUNNY   67  36  31 S20       29.33R
HETTINGER      FAIR      69  38  32 SE20G32   29.33F
$$

 *****  OTHER OBSERVATIONS NORTHEAST NORTH DAKOTA  *****

CITY           SKY/WX    TMP DP  RH WIND       PRES   REMARKS
WALHALLA       NOT AVBL
LANGDON        FAIR      61  43  51 SE28G35   29.56R
CAVALIER       FAIR      64  39  39 S20G29    29.56R
GRAFTON        FAIR      64  41  42 S21       29.59F
CANDO          NOT AVBL
FORT TOTTEN      N/A     61  41  47 SE14      29.95S
ROLLA          FAIR      61  41  48 SE26G37   29.48F
RUGBY          NOT AVBL
 ***** THE ABOVE OBSERVATIONS ARE NON NWS ARE NOT QUALITY
        CONTROLLED AND MAY MIS-REPORT RAIN FOR SNOW...
$$

 *****  OTHER OBSERVATIONS SOUTHEAST NORTH DAKOTA *****

CITY           SKY/WX    TMP DP  RH WIND       PRES   REMARKS
COOPERSTOWN    FAIR      59  43  55 SE22G30   29.57F
VALLEY CITY    FAIR      59  43  55 SE20G29   29.59F
OAKES          NOT AVBL
GWINNER        CLEAR     61  43  51 MISG      29.60S
SHEYENNE NWR     N/A     61  45  55 SE15      29.95S
BUFFALO        NOT AVBL
WYNDMERE         N/A     61  45  55 SE16        N/A
 ***** THE ABOVE OBSERVATIONS ARE NON NWS ARE NOT QUALITY
       CONTROLLED AND MAY MIS-REPORT RAIN FOR SNOW...
$$

  *****  WEATHER ACROSS NORTHERN MINNESOTA  *****

CITY           SKY/WX    TMP DP  RH WIND       PRES   REMARKS
FLAG ISLAND    FAIR      64  43  45 SE5       29.65S
WARROAD        FAIR      64  43  45 S15       29.66R
ROSEAU         FAIR      64  41  42 S15       29.64S
HALLOCK        FAIR      66  36  32 SE20      29.58F
THF RVR FALLS  FAIR      61  40  45 SE17      29.65S
HALSTAD          N/A     62  41  46 SE18        N/A
FOSSTON        MOCLDY    59  41  51 E9        29.67S
BAUDETTE       FAIR      63  38  39 S13       29.67S
WASKISH        FAIR      63  43  48 SE13G18   29.69S
CROOKSTON      FAIR      63  41  45 S17       29.63S
$$
  *****  WEATHER ACROSS CENTRAL AND WEST MINNESOTA  *****

CITY           SKY/WX    TMP DP  RH WIND       PRES   REMARKS
BEMIDJI        CLOUDY    59  41  51 SE16      29.69S
PARK RAPIDS    LGT RAIN  60  39  45 SE10      29.69R
WADENA         MOCLDY    57  43  58 S8        29.69R
DETROIT LAKES  MOCLDY    57  41  54 SE13      29.68S
MOORHEAD       CLOUDY    61  43  51 S17       29.65R
FERGUS FALLS   CLOUDY    57  45  62 S13       29.65F
ELBOW LAKE     CLOUDY    56  43  61 E9        29.68S
MORRIS MN      CLOUDY    57  46  67 SE9       29.67F
STAPLES        CLOUDY    57  41  54 SE3       29.70S
WHEATON        CLOUDY    59  43  55 SE16      29.66F
$$
  *****  WEATHER ELSEWHERE ACROSS MINNESOTA  *****

CITY           SKY/WX    TMP DP  RH WIND       PRES   REMARKS
DULUTH         FAIR      52  42  69 E10       29.74F
INTRNTL FALLS  FAIR      62  38  40 SE8       29.70S
ELY            FAIR      57  36  44 SE10      29.75R
CLOQUET        FAIR      52  39  62 E10       29.74S
BRAINERD       CLOUDY    56  43  61 SE6       29.71S
HIBBING        FAIR      55  39  54 SE10      29.73S
ALEXANDRIA     CLOUDY    56  43  61 SE8       29.70S
SAINT CLOUD    CLOUDY    57  45  64 E3        29.70S
MINNEAPOLIS    CLOUDY    60  44  55 E8        29.70S
$$

  *****  WEATHER ACROSS SOUTH DAKOTA  *****

CITY           SKY/WX    TMP DP  RH WIND       PRES   REMARKS
SIOUX FALLS    MOCLDY    59  46  62 SE9       29.65F
BROOKINGS      MOCLDY    57  46  66 SE10      29.65F
WATERTOWN      FAIR      58  45  62 SE14G20   29.62F
HURON          FAIR      62  45  53 S16G25    29.58F
SISSETON         N/A     60  46  59 S17       29.62F
ABERDEEN       FAIR      63  41  44 SE17G28   29.56F
MITCHELL       FAIR      63  45  51 SE16      29.60F
PIERRE         FAIR      67  41  38 SE23G31   29.44F
MOBRIDGE       FAIR      66  44  45 SE21G28   29.44F
RAPID CITY     FAIR      75  48  38 S17       29.33F
$$

  *****  SOME WEATHER IN NEARBY STATES *****

CITY           SKY/WX    TMP DP  RH WIND       PRES   REMARKS
GLASGOW MT     FAIR      68  15  13 NW28G38   29.32R
GREAT FALLS MT FAIR      58  19  22 W25G36    29.49R
CHEYENNE WY    FAIR      73  37  27 W16       29.62S
SCOTTSBLUFF NE FAIR      78  51  38 E8        29.42F
OMAHA NE       FAIR      66  45  46 CALM      29.66F
DES MOINES IA  FAIR      62  48  60 N3        29.67R
DAVENPORT IA   FAIR      59  51  75 N9        29.63S
CHICAGO IL     CLOUDY    59  50  72 N16G22    29.56R
EAU CLAIRE WI  FAIR      56  48  74 E5        29.70R
LA CROSSE WI   CLOUDY    60  50  69 E6        29.69R
$$

  *****  SOME NATIONAL WEATHER *****

CITY           SKY/WX    TMP DP  RH WIND       PRES   REMARKS
LA GUARDIA NY  MOCLDY    63  50  62 SE12      29.81R
RALEIGH NC     CLOUDY    69  68  96 SE8       29.58F
ATLANTA GA     FAIR      67  55  65 W15       29.54R
NEW ORLEANS LA FAIR      70  52  52 W8        29.70R
OKLAHOMA CITY  FAIR      69  44  40 NE8       29.68F
ALBUQUERQUE NM FAIR      87  18   8 W20G29    29.77F
SALT LAKE CITY CLOUDY    82  36  19 SW21G31   29.53S
LOS ANGELES CA PTSUNNY   61  54  77 W15       29.82S
BOISE ID       FAIR      70  23  17 N17G30    29.62F
SEATTLE WA     PTSUNNY   61  40  45 VRB6      29.95F
$$

*** WEATHER ACROSS MANITOBA...SASKATCHEWAN AND ONTARIO ***
                ***ONTARIO***

CITY           SKY/WX    TMP DP  RH WIND       PRES   REMARKS
GERALDTON      PTCLDY    61  30  31 E5        29.79R
THUNDER BAY    CLEAR     57  36  44 E6        29.76F
SIOUX LOOKOUT  PTCLDY    66  25  20 SE5       29.72R
TORONTO        LGT RAIN  66  50  55 E14G21    29.62R
BIG TROUT LK   CLEAR     61  30  31 S3        29.72S
PICKLE LAKE    PTCLDY    64  25  22 S6        29.75R
DRYDEN         CLEAR     66  27  22 S9        29.70S
KENORA         PTCLDY    64  34  32 S10       29.68S
$$
                *** MANITOBA***

CITY           SKY/WX    TMP DP  RH WIND       PRES   REMARKS
BRANDON        PTSUNNY   64  41  42 S20G31    29.47R
DAUPHIN        CLOUDY    68  36  30 S14G30    29.45R
ISLAND LAKE    MOSUNNY   70  32  24 S8        29.60R
PILOT MOUND      N/A     61  39  44 S29G39      N/A
THE PAS        CLOUDY    64  41  42 MISG      29.41R
THOMPSON       PTSUNNY   68  34  28 S7G17     29.51R
WINNIPEG       MOSUNNY   66  37  34 S21G31    29.56F
LYNN LAKE      PTSUNNY   68  37  32 S7        29.40R
CHURCHILL      CLOUDY    59  45  58 SW10      29.48R
GILLAM         MOSUNNY   73  36  25 SW12G22   29.53R
$$
                ***SASKATCHEWAN***

CITY           SKY/WX    TMP DP  RH WIND       PRES   REMARKS
ESTEVAN        CLOUDY    61  48  63 SE9G17    29.29F
KINDERSLEY     CLOUDY    54  39  58 SW18      29.14S
LLOYDMINSTER   CLOUDY    52  52 100 E6        29.15R
PRINCE ALBERT  CLOUDY    63  43  48 E20G29    29.15R
REGINA         PTSUNNY   64  39  39 W9        29.25R
YORKTON          N/A     64  39  39 S24G33    29.35R


USA.gov is the U.S. government's official web portal to all federal, state and local government web resources and services.